Regional Weather Roundup
Issued by NWS

Home | Current Version | Previous Version | Text Only | Print | Product List | Glossary On
Versions: 1 2 3 4 5 6 7 8 9 10 11 12 13 14 15 16 17 18 19 20 21 22 23 24 25 26 27 28 29 30 31 32 33 34 35 36 37 38 39 40 41 42 43 44 45 46 47 48 49 50
479
ASUS44 KLIX 172110
RWRLA
LOUISIANA WEATHER ROUNDUP
NATIONAL WEATHER SERVICE NEW ORLEANS LA
300 PM CST WED DEC 17 2014

NOTE: "FAIR" INDICATES FEW OR NO CLOUDS BELOW 12,000 FEET WITH NO
      SIGNIFICANT WEATHER AND/OR OBSTRUCTIONS TO VISIBILITY.
      SKY/WX - SKY CONDITION AND SIGNIFICANT WEATHER.
      TMP - AIR TEMPERATURE.    DP   - DEWPOINT TEMPERATURE.
      RH  - RELATIVE HUMIDITY.  PRES - PRESSURE.
      HX  - HEAT INDEX.         WCI  - WIND CHILL INDEX.

*  THESE STATIONS ARE NOT NWS OR FAA STATIONS AND ARE NOT UNDER
   NWS QUALITY CONTROL.

LAZ040-048-061>063-065-066-069-172200-
SOUTHEAST LOUISIANA

CITY           SKY/WX    TMP DP  RH WIND       PRES   REMARKS
N.O. AUDUBON     N/A     59  45  59 MISG        N/A
N.O. INTL ARPT PTSUNNY   57  41  55 NE5       30.20F
N.O. LAKEFRONT MOSUNNY   59  37  44 CALM      30.20F
N.O. DOWNTOWN* FAIR      57  39  51 NE3       30.20F
SLIDELL        MOSUNNY   62  39  42 MISG      30.19F
BATON ROUGE    SUNNY     60  38  43 NE3       30.19F
BOOTHVILLE     CLOUDY    59  48  67 N6        30.21R
BELLE CHASSE   PTSUNNY   60  42  51 VRB6      30.19F
BOGALUSA*        N/A     60  40  49 N6        30.21F
GALLIANO*      PTCLDY    62  44  51 MISG      30.19F
NEW ROADS*     FAIR      59  39  47 NE3       30.19F
GONZALES*      FAIR      60  40  48 NE5       30.18F
HAMMOND*       NOT AVBL
HOUMA*         MOSUNNY   63  43  48 N5        30.18F
PORT FOURCHON* CLEAR     61  46  59 NE9       30.22F

$$

LAZ041-044-053-054-172200-
SOUTHWEST LOUISIANA

CITY           SKY/WX    TMP DP  RH WIND       PRES   REMARKS
LAKE CHARLES   PTSUNNY   61  41  47 E7        30.17S
LAFAYETTE      PTSUNNY   60  38  43 CALM      30.18F
PATTERSON      MOSUNNY   61  41  48 NE7       30.18F
SALT POINT       N/A     64  44  48 VRB3      30.16F
NEW IBERIA     MOSUNNY   62  40  44 NE7       30.19F
CHENAULT AIRPK MOSUNNY   61  43  51 E7        30.17

$$

LAZ027-028-172200-
CENTRAL LOUISIANA

CITY           SKY/WX    TMP DP  RH WIND       PRES   REMARKS
FORT POLK      CLOUDY    56  42  59 VRB3      30.16F
ALEXANDRIA INT CLOUDY    56  39  53 SE5       30.18F
ALEXANDRIA     CLOUDY    57  39  51 CALM      30.19F

$$

LAZ001-002-172200-
NORTHWEST LOUISIANA

CITY           SKY/WX    TMP DP  RH WIND       PRES   REMARKS
SHREVEPORT     CLOUDY    48  37  65 E5        30.19F
BARKSDALE AFB  NOT AVBL
DTN SHREVEPORT CLOUDY    46  35  65 E7        30.19F

$$

LAZ014-016-172200-
NORTHEAST LOUISIANA

CITY           SKY/WX    TMP DP  RH WIND       PRES   REMARKS
MONROE         CLOUDY    51  37  58 NE7       30.22F
TALLULAH       SUNNY     53  38  56 N3        30.22F

$$




USA.gov is the U.S. government's official web portal to all federal, state and local government web resources and services.